Milton, FL

12:47 AM CST on February 10, 2016 (GMT -0600)
Whiting Field Naval Air Station (South)

Weather History for KNDZ - April, 2013

Change the Weather History Date:

Wednesday, April 3, 2013

  Actual Average (KPNS) Record (KPNS)
Temperature  
Mean Temperature 58 °F 64 °F  
Max Temperature 62 °F 73 °F 86 °F (2006)
Min Temperature 53 °F 55 °F 37 °F (1987)
Degree Days  
Heating Degree Days 8 3  
Month to date heating degree days 9  
Since 1 July heating degree days 1493  
Cooling Degree Days 0 2  
Month to date cooling degree days 6  
Year to date cooling degree days 53  
Growing Degree Days 8 (Base 50)    
Moisture  
Dew Point 54 °F    
Average Humidity 86    
Maximum Humidity 94    
Minimum Humidity 72    
Precipitation  
Precipitation 0.27 in 0.16 in 2.88 in (1960)
Month to date precipitation 0.48  
Year to date precipitation 15.98  
Snow  
Snow 0.00 in 0.00 in - ()
Month to date snowfall 0.0  
Since 1 July snowfall 0.0  
Snow Depth -    
Sea Level Pressure  
Sea Level Pressure 29.95 in    
Wind  
Wind Speed 8 mph (NE)    
Max Wind Speed 23 mph    
Max Gust Speed 36 mph    
Visibility 9 miles    
Events Rain , Thunderstorm    
T = Trace of Precipitation, MM = Missing Value Source: NWS Daily Summary

Daily Weather History Graph

Daily Weather History Graph

Search for Another Location

Airport or City:

Trip Planner

Search our weather history database for the weather conditions in past years. The results will help you decide how hot, cold, wet, or windy it might be!

Date:

Astronomy

Apr. 03, 2013 Rise Set
Actual Time 6:34 AM CDT 7:08 PM CDT
Civil Twilight 6:10 AM CDT 7:32 PM CDT
Nautical Twilight 5:41 AM CDT 8:01 PM CDT
Astronomical Twilight 5:12 AM CDT 8:30 PM CDT
Moon 1:49 AM CDT (4/3) 12:45 PM CDT (4/3)
Length of Visible Light 13h 22m
Length of Day
12h 34m
Last Quarter, 44% of the Moon is Illuminated
Apr 3
Last Quarter
Apr 10
New
Apr 18
First Quarter
Apr 25
Full
May 2
Last Quarter

Hourly Weather History & Observations

Time (CDT) Temp. Dew Point Humidity Pressure Visibility Wind Dir Wind Speed Gust Speed Precip Events Conditions
12:56 AM 60.1 °F 52.0 °F 75% 29.98 in 10.0 mi NE 4.6 mph - N/A   Clear
1:56 AM 59.0 °F 52.0 °F 78% 29.96 in 10.0 mi NE 5.8 mph - N/A   Clear
2:56 AM 60.1 °F 54.0 °F 80% 29.95 in 10.0 mi Calm Calm - N/A   Clear
3:56 AM 60.1 °F 53.1 °F 78% 29.94 in 10.0 mi NE 4.6 mph - N/A   Overcast
4:56 AM 59.0 °F 53.1 °F 81% 29.94 in 10.0 mi NE 5.8 mph - N/A   Overcast
5:56 AM 59.0 °F 52.0 °F 78% 29.94 in 10.0 mi ENE 6.9 mph - N/A   Clear
6:56 AM 60.1 °F 51.1 °F 72% 29.98 in 10.0 mi ENE 4.6 mph - N/A   Overcast
7:56 AM 57.0 °F 53.1 °F 87% 30.02 in 10.0 mi NNW 5.8 mph - 0.04 in Rain Light Rain
8:56 AM 57.0 °F 52.0 °F 83% 30.03 in 10.0 mi NNE 9.2 mph - 0.00 in Rain Light Rain
9:00 AM - - N/A% - - North - - N/A   Unknown
9:56 AM 55.9 °F 52.0 °F 87% 30.02 in 10.0 mi NE 10.4 mph - 0.01 in Rain Light Rain
10:56 AM 55.0 °F 51.1 °F 86% 30.02 in 9.0 mi NE 10.4 mph - 0.04 in Rain Rain
11:06 AM 55.4 °F 51.8 °F 88% 30.08 in 8.0 mi NE 6.9 mph - 0.01 in Rain , Thunderstorm Thunderstorms and Rain
11:21 AM 53.6 °F 51.8 °F 94% 30.08 in 7.0 mi NE 9.2 mph - 0.01 in Rain Rain
11:56 AM 54.0 °F 51.1 °F 90% 30.04 in 8.0 mi NE 10.4 mph - 0.05 in Rain Rain
12:24 PM 53.6 °F 51.8 °F 94% 30.09 in 9.0 mi NE 6.9 mph - 0.02 in Rain , Thunderstorm Thunderstorms and Rain
12:48 PM 53.6 °F 51.8 °F 94% 30.08 in 6.0 mi NE 10.4 mph - 0.10 in Rain Rain
12:56 PM 53.1 °F 51.1 °F 93% 30.03 in 6.0 mi NE 10.4 mph - 0.13 in Rain Rain
1:05 PM 53.6 °F 51.8 °F 94% 30.06 in 7.0 mi NNE 11.5 mph - 0.00 in Rain , Thunderstorm Thunderstorms and Rain
1:21 PM 53.6 °F 51.8 °F 94% 30.06 in 10.0 mi NNE 6.9 mph - N/A Rain Rain
1:39 PM 53.6 °F 51.8 °F 94% 30.06 in 9.0 mi NNE 9.2 mph - N/A Rain , Thunderstorm Thunderstorms and Rain
2:48 PM 53.6 °F 51.8 °F 94% 29.88 in 6.0 mi East 23.0 mph 35.7 mph N/A Rain Light Rain
2:56 PM 55.0 °F 53.1 °F 93% 29.84 in 9.0 mi East 21.9 mph 31.1 mph N/A Rain Light Rain
3:08 PM 57.2 °F 53.6 °F 88% 29.84 in 10.0 mi East 20.7 mph 31.1 mph 0.00 in Rain Light Rain
3:17 PM 57.2 °F 55.4 °F 94% 29.86 in 10.0 mi ESE 15.0 mph 25.3 mph 0.00 in   Scattered Clouds
3:37 PM 57.2 °F 53.6 °F 88% 29.86 in 10.0 mi East 16.1 mph - 0.00 in   Mostly Cloudy
3:56 PM 59.0 °F 55.9 °F 90% 29.80 in 10.0 mi East 16.1 mph 21.9 mph 0.00 in   Overcast
4:18 PM 60.8 °F 55.4 °F 82% 29.84 in 10.0 mi East 13.8 mph - N/A   Partly Cloudy
4:56 PM 61.0 °F 55.9 °F 83% 29.80 in 10.0 mi ENE 10.4 mph - N/A   Clear
5:56 PM 62.1 °F 57.0 °F 84% 29.83 in 10.0 mi NNE 10.4 mph - N/A   Clear
6:49 PM 60.8 °F 55.4 °F 82% 29.90 in 10.0 mi North 9.2 mph - N/A   Mostly Cloudy
6:56 PM 61.0 °F 55.9 °F 83% 29.86 in 10.0 mi North 8.1 mph - N/A   Mostly Cloudy
7:56 PM 60.1 °F 55.9 °F 86% 29.91 in 10.0 mi NNE 8.1 mph - N/A   Overcast
8:56 PM 60.1 °F 55.9 °F 86% 29.93 in 10.0 mi NE 10.4 mph - N/A   Overcast
9:19 PM 60.8 °F 55.4 °F 82% 29.96 in 10.0 mi NE 10.4 mph - N/A   Overcast
9:56 PM 60.1 °F 55.9 °F 86% 29.92 in 10.0 mi NE 11.5 mph - N/A   Overcast
10:12 PM 60.8 °F 55.4 °F 82% 29.97 in 10.0 mi NE 9.2 mph - N/A   Overcast
10:56 PM 60.1 °F 55.9 °F 86% 29.92 in 10.0 mi ENE 11.5 mph - N/A   Overcast
11:13 PM 60.8 °F 55.4 °F 82% 29.95 in 10.0 mi ENE 11.5 mph - N/A   Overcast
11:20 PM 60.8 °F 55.4 °F 82% 29.96 in 10.0 mi NE 11.5 mph - N/A   Overcast
11:34 PM 60.8 °F 55.4 °F 82% 29.96 in 10.0 mi NE 6.9 mph - N/A   Overcast
11:56 PM 60.1 °F 55.9 °F 86% 29.92 in 10.0 mi NE 6.9 mph - N/A   Overcast